This demonstration page uses our WeatherBlox Daily Observations layout. Learn more.

Hourly Observations for March 26, 2017

Temp ( °F °C ) Dew Point ( °F °C ) Humidity (%) Winds ( mph kmh ) Pressure ( in mb ) Visibility ( mi km ) Precip ( " mm )
12:15 am 00:15 Cloudy with Mist and Fog 40 4.2 38 3.6 96 96 E 5 7 29.97 1015 4 6.43736 0 0
12:35 am 00:35 Cloudy with Mist and Fog 40 4.2 38 3.6 96 96 E 6 9 29.97 1015 3 4.82802 0 0
12:55 am 00:55 Cloudy with Mist and Fog 39 4.1 38 3.5 96 96 E 7 11 29.97 1015 2 3.21868 0 0
1:15 am 01:15 Cloudy with Mist and Fog 39 4.1 38 3.5 96 96 E 5 7 29.97 1015 2.5 4.02335 0 0
1:35 am 01:35 Cloudy with Mist and Fog 39 4 38 3.5 97 97 E 5 7 29.97 1015 2 3.21868 0 0
1:55 am 01:55 Cloudy with Mist and Fog 39 4 38 3.3 95 95 ESE 5 7 29.97 1015 1.5 2.41401 0 0
2:15 am 02:15 Cloudy with Mist and Fog 39 4 38 3.4 96 96 ESE 3 6 29.97 1015 1.75 2.816345 0 0
2:35 am 02:35 Cloudy with Mist and Fog 39 3.9 38 3.4 97 97 Calm 29.97 1015 2 3.21868 0 0
2:55 am 02:55 Cloudy with Mist and Fog 39 4 38 3.5 97 97 Calm 29.97 1015 1.75 2.816345 0 0
3:15 am 03:15 Cloudy with Mist and Fog 39 3.8 38 3.3 97 97 Calm 29.97 1015 2.5 4.02335 0 0
3:35 am 03:35 Cloudy with Mist and Fog 39 3.8 38 3.3 97 97 Calm 29.97 1015 2 3.21868 0 0
3:55 am 03:55 Cloudy with Mist and Fog 39 3.7 38 3.2 97 97 Calm 29.94 1014 2.5 4.02335 0 0
4:15 am 04:15 Cloudy with Mist and Fog 39 3.8 38 3.3 97 97 Calm 29.94 1014 3 4.82802 0 0
4:35 am 04:35 Cloudy with Mist and Fog 39 3.9 38 3.4 97 97 Calm 29.94 1014 5 8.0467 0 0
4:55 am 04:55 Cloudy 39 4 38 3.5 97 97 Calm 29.94 1014 7 11.26538 0 0
5:15 am 05:15 Cloudy with Mist and Fog 39 3.9 38 3.4 97 97 Calm 29.91 1013 5 8.0467 0 0
5:35 am 05:35 Cloudy with Mist and Fog 39 4 38 3.5 97 97 Calm 29.91 1013 5 8.0467 0 0
5:55 am 05:55 Cloudy with Mist and Fog 39 4 38 3.3 95 95 Calm 29.91 1013 4 6.43736 0 0
6:15 am 06:15 Cloudy with Mist and Fog 39 4 38 3.3 95 95 Calm 29.91 1013 4 6.43736 0 0
6:35 am 06:35 Cloudy with Mist and Fog 39 4 38 3.5 97 97 Calm 29.91 1013 4 6.43736 0 0
6:55 am 06:55 Cloudy with Mist and Fog 39 4 38 3.5 97 97 Calm 29.94 1014 4 6.43736 0 0
7:15 am 07:15 Cloudy with Mist and Fog 39 4 38 3.5 97 97 Calm 29.94 1014 3 4.82802 0 0
7:35 am 07:35 Cloudy with Mist and Fog 39 4.1 38 3.5 96 96 Calm 29.94 1014 3 4.82802 0 0
7:55 am 07:55 Cloudy with Mist and Fog 39 4.1 38 3.5 96 96 Calm 29.94 1014 3 4.82802 0 0
8:15 am 08:15 Cloudy with Mist and Fog 40 4.2 39 3.7 97 97 Calm 29.94 1014 1.75 2.816345 0 0
8:35 am 08:35 Cloudy with Mist and Fog 40 4.2 39 3.7 97 97 SSE 3 6 29.94 1014 1.75 2.816345 0 0
8:55 am 08:55 Cloudy with Mist and Fog 40 4.5 39 4 97 97 Calm 29.97 1015 2 3.21868 0 0
9:15 am 09:15 Cloudy with Mist and Fog 40 4.5 39 4 97 97 Calm 29.97 1015 1.75 2.816345 0 0
9:35 am 09:35 Cloudy with Mist and Fog 40 4.6 39 4 96 96 Calm 29.97 1015 2 3.21868 0 0
9:55 am 09:55 Cloudy with Mist and Fog 41 4.9 40 4.2 95 95 Calm 29.97 1015 2.5 4.02335 0 0
10:15 am 10:15 Cloudy with Mist and Fog 41 5.1 40 4.3 95 95 Calm 29.94 1014 2 3.21868 0 0
10:35 am 10:35 Cloudy with Mist and Fog 42 5.6 40 4.7 94 94 NNW 3 6 29.94 1014 2.5 4.02335 0 0
10:55 am 10:55 Cloudy 42 5.8 40 4.7 93 93 Calm 29.94 1014 10 16.0934 0 0
11:15 am 11:15 Cloudy 44 6.5 41 5.1 91 91 N 5 7 29.94 1014 10 16.0934 0 0
11:35 am 11:35 Cloudy 44 6.6 40 4.6 87 87 Calm 29.94 1014 10 16.0934 0 0
11:55 am 11:55 Cloudy 45 7 40 4.7 85 85 Calm 29.94 1014 10 16.0934 0 0
12:15 pm 12:15 Cloudy 45 7.2 40 4.5 83 83 Calm 29.94 1014 10 16.0934 0 0
12:35 pm 12:35 Cloudy 45 7.3 40 4.5 83 83 E 3 6 29.94 1014 10 16.0934 0 0
12:55 pm 12:55 Cloudy 45 7.4 40 4.6 83 83 NNE 6 9 29.94 1014 10 16.0934 0 0
1:15 pm 13:15 Cloudy 46 7.9 41 5 82 82 Calm 29.94 1014 10 16.0934 0 0
1:35 pm 13:35 Cloudy 46 7.5 41 5 84 84 E 3 6 29.94 1014 10 16.0934 0 0
1:55 pm 13:55 Cloudy 46 7.7 41 5 83 83 Calm 29.94 1014 10 16.0934 0 0
2:15 pm 14:15 Cloudy 46 8 41 5 82 82 Calm 29.91 1013 10 16.0934 0 0
2:35 pm 14:35 Cloudy 47 8.5 41 5.2 80 80 ENE 7 11 29.88 1012 10 16.0934 0 0
2:55 pm 14:55 Cloudy 47 8.5 41 4.8 78 78 Calm 29.88 1012 10 16.0934 0 0
3:15 pm 15:15 Cloudy 49 9.3 42 5.3 76 76 NNE 5 7 29.88 1012 10 16.0934 0 0
3:35 pm 15:35 Cloudy 49 9.3 42 5.4 77 77 ENE 5 7 29.88 1012 10 16.0934 0 0
3:55 pm 15:55 Cloudy 48 8.9 40 4.7 75 75 Calm 29.88 1012 10 16.0934 0 0
4:15 pm 16:15 Mostly Cloudy 49 9.6 41 4.8 72 72 Calm 29.85 1011 10 16.0934 0 0
4:35 pm 16:35 Mostly Cloudy 49 9.4 41 5.2 75 75 ENE 8 13 29.85 1011 10 16.0934 0 0
4:55 pm 16:55 Mostly Cloudy 51 10.3 42 5.3 71 71 NE 7 11 29.85 1011 10 16.0934 0 0
5:15 pm 17:15 Mostly Cloudy 49 9.5 40 4.5 71 71 Calm 29.88 1012 10 16.0934 0 0
5:35 pm 17:35 Mostly Cloudy 49 9.6 41 4.9 73 73 E 3 6 29.88 1012 10 16.0934 0 0
5:55 pm 17:55 Mostly Cloudy 49 9.5 40 4.7 72 72 E 5 7 29.88 1012 10 16.0934 0 0
6:15 pm 18:15 Cloudy 49 9.5 40 4.4 71 71 E 3 6 29.91 1013 10 16.0934 0 0
6:35 pm 18:35 Cloudy 49 9.3 41 5.1 75 75 E 8 13 29.88 1012 10 16.0934 0 0
6:55 pm 18:55 Cloudy 48 9 41 5 76 76 E 8 13 29.88 1012 10 16.0934 0 0
7:15 pm 19:15 Cloudy 48 8.7 42 5.3 79 79 ENE 5 7 29.91 1013 10 16.0934 0 0
7:35 pm 19:35 Cloudy 47 8.6 42 5.5 81 81 NE 5 7 29.91 1013 10 16.0934 0 0
7:55 pm 19:55 Cloudy with Light Drizzle 47 8.5 42 5.7 83 83 Calm 29.97 1015 10 16.0934 0 0
8:15 pm 20:15 Cloudy 47 8.3 42 5.8 84 84 Calm 29.97 1015 10 16.0934 0 0
8:35 pm 20:35 Cloudy 46 8 43 6 87 87 ESE 5 7 29.97 1015 10 16.0934 0 0
8:55 pm 20:55 Cloudy 46 7.8 43 6.2 90 90 Calm 29.97 1015 10 16.0934 0 0
9:15 pm 21:15 Cloudy 46 7.6 43 6.1 90 90 ESE 5 7 29.94 1014 10 16.0934 0 0
9:35 pm 21:35 Cloudy 46 7.5 43 6.1 91 91 Calm 29.97 1015 10 16.0934 0 0
9:55 pm 21:55 Cloudy 45 7.2 42 5.8 91 91 Calm 29.97 1015 10 16.0934 0 0
10:15 pm 22:15 Cloudy 45 7.2 43 6 92 92 Calm 29.97 1015 10 16.0934 0 0
10:35 pm 22:35 Cloudy 45 7.2 43 6 92 92 Calm 29.97 1015 10 16.0934 0 0
10:55 pm 22:55 Cloudy 45 7.2 43 6 92 92 Calm 29.97 1015 10 16.0934 0 0
11:15 pm 23:15 Cloudy 45 7 42 5.8 92 92 Calm 29.97 1015 10 16.0934 0 0
11:35 pm 23:35 Mostly Cloudy 43 6 41 4.9 93 93 Calm 29.94 1014 10 16.0934 0 0
11:55 pm 23:55 Cloudy 42 5.8 41 5 95 95 Calm 29.97 1015 10 16.0934 0 0

Powered by AerisWeather